,,,PA_Meas_PMT16A,,PR_Meas_QMR101_102,,RH_Meas_QMH101,,SR_Meas_QMS101,,TA_Meas_QMH101,,GenWind,,GenWind,
date,time,status,PA,status,PR,status,RH,status,SR,status,TA,status,DirAvg,status,SpdAvg,
2010-04-25, 00:00:04,VALID,1004.64,VALID,0,VALID,96.246,VALID,0,VALID,24.5972,VALID,8,VALID,0,
2010-04-25, 00:01:04,VALID,1004.61,VALID,0,VALID,96.2612,VALID,0,VALID,24.6185,VALID,8,VALID,0,
2010-04-25, 00:02:04,VALID,1004.62,VALID,0,VALID,96.246,VALID,0,VALID,24.5777,VALID,8,VALID,0,
2010-04-25, 00:03:04,VALID,1004.56,VALID,0,VALID,96.2612,VALID,0,VALID,24.638,VALID,8,VALID,0,
2010-04-25, 00:04:04,VALID,1004.57,VALID,0,VALID,96.2688,VALID,0,VALID,24.6166,VALID,8,VALID,0,
2010-04-25, 00:05:04,VALID,1004.55,VALID,0,VALID,96.2994,VALID,0,VALID,24.6574,VALID,8,VALID,0,
2010-04-25, 00:06:04,VALID,1004.54,VALID,0,VALID,96.2994,VALID,0,VALID,24.6769,VALID,8,VALID,0,
2010-04-25, 00:07:04,VALID,1004.56,VALID,0,VALID,96.2994,VALID,0,VALID,24.6556,VALID,8,VALID,0,
2010-04-25, 00:08:04,VALID,1004.54,VALID,0,VALID,96.2917,VALID,0.100563,VALID,24.6769,VALID,8,VALID,0,
2010-04-25, 00:09:04,VALID,1004.54,VALID,0,VALID,96.307,VALID,0.100563,VALID,24.6945,VALID,8,VALID,0,
2010-04-25, 00:10:04,VALID,1004.56,VALID,0,VALID,96.2994,VALID,0,VALID,24.7159,VALID,8,VALID,0,
2010-04-25, 00:11:05,VALID,1004.54,VALID,0,VALID,96.307,VALID,0.100563,VALID,24.6945,VALID,8,VALID,0,
2010-04-25, 00:12:05,VALID,1004.57,VALID,0,VALID,96.2917,VALID,0.100563,VALID,24.714,VALID,8,VALID,0,
2010-04-25, 00:13:05,VALID,1004.56,VALID,0,VALID,96.2917,VALID,0,VALID,24.6945,VALID,8,VALID,0,
2010-04-25, 00:14:05,VALID,1004.61,VALID,0,VALID,96.2612,VALID,0,VALID,24.714,VALID,8,VALID,0,
2010-04-25, 00:15:05,VALID,1004.61,VALID,0,VALID,96.246,VALID,0,VALID,24.7353,VALID,8,VALID,0,
2010-04-25, 00:16:05,VALID,1004.63,VALID,0,VALID,96.2383,VALID,0,VALID,24.6945,VALID,8,VALID,0,
2010-04-25, 00:17:05,VALID,1004.64,VALID,0,VALID,96.2154,VALID,0,VALID,24.675,VALID,8,VALID,0,
2010-04-25, 00:18:05,VALID,1004.63,VALID,0,VALID,96.2002,VALID,0,VALID,24.6556,VALID,8,VALID,0,
2010-04-25, 00:19:05,VALID,1004.63,VALID,0,VALID,96.1773,VALID,0.100563,VALID,24.675,VALID,8,VALID,0,
2010-04-25, 00:20:05,VALID,1004.59,VALID,0,VALID,96.1392,VALID,0,VALID,24.6769,VALID,8,VALID,0,
2010-04-25, 00:21:05,VALID,1004.62,VALID,0,VALID,96.0934,VALID,0,VALID,24.638,VALID,8,VALID,0,
2010-04-25, 00:22:05,VALID,1004.61,VALID,0,VALID,96.0552,VALID,0.100563,VALID,24.5972,VALID,8,VALID,0,
2010-04-25, 00:23:05,VALID,1004.59,VALID,0,VALID,96.0247,VALID,0,VALID,24.599,VALID,8,VALID,0,
2010-04-25, 00:24:05,VALID,1004.6,VALID,0,VALID,96.0171,VALID,0,VALID,24.5582,VALID,8,VALID,0,
2010-04-25, 00:25:05,VALID,1004.59,VALID,0,VALID,95.9942,VALID,0.100563,VALID,24.5388,VALID,8,VALID,0,
2010-04-25, 00:26:05,VALID,1004.6,VALID,0,VALID,95.9866,VALID,0,VALID,24.4998,VALID,8,VALID,0,
2010-04-25, 00:27:05,VALID,1004.59,VALID,0,VALID,96.0247,VALID,0,VALID,24.4998,VALID,8,VALID,0,
2010-04-25, 00:28:05,VALID,1004.56,VALID,0,VALID,96.0095,VALID,0.100563,VALID,24.4804,VALID,8,VALID,0,
2010-04-25, 00:29:05,VALID,1004.55,VALID,0,VALID,96.0476,VALID,0,VALID,24.4804,VALID,8,VALID,0,
2010-04-25, 00:30:05,VALID,1004.54,VALID,0,VALID,96.0629,VALID,0,VALID,24.4998,VALID,8,VALID,0,
2010-04-25, 00:31:05,VALID,1004.54,VALID,0,VALID,96.0934,VALID,0,VALID,24.4998,VALID,8,VALID,0,
2010-04-25, 00:32:05,VALID,1004.5,VALID,0,VALID,96.1086,VALID,0,VALID,24.5212,VALID,8,VALID,0,
2010-04-25, 00:33:05,VALID,1004.47,VALID,0,VALID,96.1544,VALID,0,VALID,24.5212,VALID,8,VALID,0,
2010-04-25, 00:34:05,VALID,1004.44,VALID,0,VALID,96.162,VALID,0,VALID,24.5017,VALID,8,VALID,0,
2010-04-25, 00:35:05,VALID,1004.4,VALID,0,VALID,96.1697,VALID,0,VALID,24.4998,VALID,8,VALID,0,
2010-04-25, 00:36:05,VALID,1004.39,VALID,0,VALID,96.2002,VALID,0,VALID,24.4998,VALID,8,VALID,0,
2010-04-25, 00:37:05,VALID,1004.35,VALID,0,VALID,96.1926,VALID,0,VALID,24.4998,VALID,8,VALID,0,
2010-04-25, 00:38:05,VALID,1004.34,VALID,0,VALID,96.2231,VALID,0,VALID,24.4998,VALID,8,VALID,0,
2010-04-25, 00:39:05,VALID,1004.36,VALID,0,VALID,96.2307,VALID,0.100563,VALID,24.5406,VALID,8,VALID,0,
2010-04-25, 00:40:05,VALID,1004.36,VALID,0,VALID,96.2231,VALID,0,VALID,24.4998,VALID,8,VALID,0,
2010-04-25, 00:41:05,VALID,1004.35,VALID,0,VALID,96.2383,VALID,0,VALID,24.4998,VALID,8,VALID,0,
2010-04-25, 00:42:05,VALID,1004.38,VALID,0,VALID,96.246,VALID,0,VALID,24.5017,VALID,8,VALID,0,
2010-04-25, 00:43:05,VALID,1004.39,VALID,0,VALID,96.246,VALID,0,VALID,24.5017,VALID,8,VALID,0,
2010-04-25, 00:44:05,VALID,1004.38,VALID,0,VALID,96.246,VALID,0,VALID,24.5212,VALID,8,VALID,0,
2010-04-25, 00:45:05,VALID,1004.37,VALID,0,VALID,96.2765,VALID,0,VALID,24.5212,VALID,8,VALID,0,
2010-04-25, 00:46:05,VALID,1004.37,VALID,0,VALID,96.2688,VALID,0,VALID,24.5017,VALID,8,VALID,0,
2010-04-25, 00:47:05,VALID,1004.36,VALID,0,VALID,96.2841,VALID,0,VALID,24.5017,VALID,8,VALID,0,
2010-04-25, 00:48:05,VALID,1004.31,VALID,0,VALID,96.2612,VALID,0,VALID,24.4804,VALID,8,VALID,0,
2010-04-25, 00:49:05,VALID,1004.31,VALID,0,VALID,96.2536,VALID,0,VALID,24.4628,VALID,8,VALID,0,
2010-04-25, 00:50:05,VALID,1004.3,VALID,0,VALID,96.2536,VALID,0,VALID,24.4628,VALID,8,VALID,0,
2010-04-25, 00:51:05,VALID,1004.32,VALID,0,VALID,96.2536,VALID,0,VALID,24.4414,VALID,8,VALID,0,
2010-04-25, 00:52:05,VALID,1004.34,VALID,0,VALID,96.2612,VALID,0,VALID,24.422,VALID,8,VALID,0,
2010-04-25, 00:53:05,VALID,1004.34,VALID,0,VALID,96.2536,VALID,0,VALID,24.4433,VALID,8,VALID,0,
2010-04-25, 00:54:05,VALID,1004.36,VALID,0,VALID,96.2765,VALID,0,VALID,24.422,VALID,8,VALID,0,
2010-04-25, 00:55:05,VALID,1004.35,VALID,0,VALID,96.2612,VALID,0,VALID,24.4433,VALID,8,VALID,0,
2010-04-25, 00:56:05,VALID,1004.37,VALID,0,VALID,96.2765,VALID,0,VALID,24.4414,VALID,8,VALID,0,
2010-04-25, 00:57:05,VALID,1004.35,VALID,0,VALID,96.2765,VALID,0,VALID,24.4628,VALID,8,VALID,0,
2010-04-25, 00:58:05,VALID,1004.32,VALID,0,VALID,96.2841,VALID,0,VALID,24.4609,VALID,8,VALID,0,
2010-04-25, 00:59:05,VALID,1004.31,VALID,0,VALID,96.2841,VALID,0,VALID,24.4609,VALID,8,VALID,0,
2010-04-25, 01:00:05,VALID,1004.32,VALID,0,VALID,96.2841,VALID,0,VALID,24.5017,VALID,8,VALID,0,
2010-04-25, 01:01:05,VALID,1004.29,VALID,0,VALID,96.307,VALID,0,VALID,24.4804,VALID,8,VALID,0,
2010-04-25, 01:02:05,VALID,1004.29,VALID,0,VALID,96.2994,VALID,0.100563,VALID,24.5212,VALID,8,VALID,0,
2010-04-25, 01:03:05,VALID,1004.29,VALID,0,VALID,96.2994,VALID,0,VALID,24.5212,VALID,8,VALID,0,
2010-04-25, 01:04:05,VALID,1004.29,VALID,0,VALID,96.2994,VALID,0,VALID,24.4804,VALID,8,VALID,0,
2010-04-25, 01:05:05,VALID,1004.28,VALID,0,VALID,96.2841,VALID,0,VALID,24.4609,VALID,8,VALID,0,
2010-04-25, 01:06:05,VALID,1004.28,VALID,0,VALID,96.2688,VALID,0,VALID,24.4804,VALID,8,VALID,0,
2010-04-25, 01:07:05,VALID,1004.26,VALID,0,VALID,96.2612,VALID,0,VALID,24.4998,VALID,9,VALID,0,
2010-04-25, 01:08:05,VALID,1004.26,VALID,0,VALID,96.2765,VALID,0,VALID,24.5601,VALID,53,VALID,0,
2010-04-25, 01:09:05,VALID,1004.2,VALID,0,VALID,96.2688,VALID,0,VALID,24.5388,VALID,53,VALID,0,
2010-04-25, 01:10:05,VALID,1004.22,VALID,0,VALID,96.2917,VALID,0,VALID,24.5601,VALID,53,VALID,0,
2010-04-25, 01:11:05,VALID,1004.2,VALID,0,VALID,96.2765,VALID,0,VALID,24.5193,VALID,53,VALID,0,
2010-04-25, 01:12:05,VALID,1004.19,VALID,0,VALID,96.2765,VALID,0,VALID,24.5212,VALID,53,VALID,0,
2010-04-25, 01:13:05,VALID,1004.19,VALID,0,VALID,96.2612,VALID,0,VALID,24.459,VALID,53,VALID,0,
2010-04-25, 01:14:05,VALID,1004.17,VALID,0,VALID,96.246,VALID,0,VALID,24.4804,VALID,53,VALID,0,
2010-04-25, 01:15:05,VALID,1004.17,VALID,0,VALID,96.246,VALID,0,VALID,24.4804,VALID,53,VALID,0,
2010-04-25, 01:16:05,VALID,1004.15,VALID,0,VALID,96.2231,VALID,0.100563,VALID,24.4998,VALID,53,VALID,0,
2010-04-25, 01:17:05,VALID,1004.17,VALID,0,VALID,96.2383,VALID,0,VALID,24.4998,VALID,53,VALID,0,
2010-04-25, 01:18:05,VALID,1004.15,VALID,0,VALID,96.2307,VALID,0,VALID,24.4998,VALID,53,VALID,0,
2010-04-25, 01:19:05,VALID,1004.15,VALID,0,VALID,96.2383,VALID,0,VALID,24.4998,VALID,53,VALID,0,
2010-04-25, 01:20:05,VALID,1004.13,VALID,0,VALID,96.2612,VALID,0,VALID,24.5212,VALID,52,VALID,0.100781,
2010-04-25, 01:21:05,VALID,1004.16,VALID,0,VALID,96.2307,VALID,0,VALID,24.4998,VALID,52,VALID,0.214453,
2010-04-25, 01:22:05,VALID,1004.11,VALID,0,VALID,96.246,VALID,0,VALID,24.5212,VALID,52,VALID,0.333203,
2010-04-25, 01:23:05,VALID,1004.11,VALID,0,VALID,96.246,VALID,0,VALID,24.5212,VALID,52,VALID,0.213281,
2010-04-25, 01:24:05,VALID,1004.08,VALID,0,VALID,96.2307,VALID,0,VALID,24.4998,VALID,52,VALID,0,
2010-04-25, 01:25:05,VALID,1004.07,VALID,0,VALID,96.246,VALID,0,VALID,24.5212,VALID,53,VALID,0.437109,
2010-04-25, 01:26:05,VALID,1004.06,VALID,0,VALID,96.2536,VALID,0,VALID,24.5174,VALID,54,VALID,0.361719,
2010-04-25, 01:27:05,VALID,1004.03,VALID,0,VALID,96.2383,VALID,0,VALID,24.5796,VALID,54,VALID,0.233984,
2010-04-25, 01:28:05,VALID,1004.06,VALID,0,VALID,96.246,VALID,0,VALID,24.599,VALID,54,VALID,0.148438,
2010-04-25, 01:29:05,VALID,1004.01,VALID,0,VALID,96.246,VALID,0,VALID,24.599,VALID,54,VALID,0.0972656,
2010-04-25, 01:30:05,VALID,1004,VALID,0,VALID,96.2612,VALID,0,VALID,24.5777,VALID,54,VALID,0,
2010-04-25, 01:31:05,VALID,1004.01,VALID,0,VALID,96.246,VALID,0,VALID,24.5972,VALID,54,VALID,0.345703,
2010-04-25, 01:32:05,VALID,1003.97,VALID,0,VALID,96.2612,VALID,0,VALID,24.6185,VALID,54,VALID,0.243359,
2010-04-25, 01:33:05,VALID,1003.99,VALID,0,VALID,96.2536,VALID,0,VALID,24.5777,VALID,54,VALID,0.190625,
2010-04-25, 01:34:05,VALID,1003.94,VALID,0,VALID,96.2307,VALID,0,VALID,24.599,VALID,54,VALID,0.00703125,
2010-04-25, 01:35:05,VALID,1003.93,VALID,0,VALID,96.2231,VALID,0,VALID,24.5582,VALID,54,VALID,0.319922,
2010-04-25, 01:36:05,VALID,1003.94,VALID,0,VALID,96.1849,VALID,0.100563,VALID,24.599,VALID,54,VALID,0.3,
2010-04-25, 01:37:05,VALID,1003.94,VALID,0,VALID,96.2002,VALID,0,VALID,24.5777,VALID,54,VALID,0.173047,
2010-04-25, 01:38:05,VALID,1003.95,VALID,0,VALID,96.1849,VALID,0,VALID,24.5582,VALID,54,VALID,0.1375,
2010-04-25, 01:39:05,VALID,1003.92,VALID,0,VALID,96.1849,VALID,0,VALID,24.5777,VALID,54,VALID,0.075,
2010-04-25, 01:40:05,VALID,1003.93,VALID,0,VALID,96.2154,VALID,0,VALID,24.6185,VALID,54,VALID,0,
2010-04-25, 01:41:05,VALID,1003.93,VALID,0,VALID,96.2154,VALID,0,VALID,24.6185,VALID,54,VALID,0.00273437,
2010-04-25, 01:42:05,VALID,1003.94,VALID,0,VALID,96.2002,VALID,0,VALID,24.638,VALID,54,VALID,0.192188,
2010-04-25, 01:43:05,VALID,1003.95,VALID,0,VALID,96.2002,VALID,0,VALID,24.5972,VALID,54,VALID,0.157813,
2010-04-25, 01:44:05,VALID,1003.96,VALID,0,VALID,96.2154,VALID,0,VALID,24.6166,VALID,54,VALID,0.197656,
2010-04-25, 01:45:05,VALID,1003.95,VALID,0,VALID,96.2078,VALID,0,VALID,24.6166,VALID,54,VALID,0.287891,
2010-04-25, 01:46:05,VALID,1003.93,VALID,0,VALID,96.2154,VALID,0,VALID,24.638,VALID,54,VALID,0,
2010-04-25, 01:47:05,VALID,1003.96,VALID,0,VALID,96.1926,VALID,0,VALID,24.6166,VALID,54,VALID,0,
2010-04-25, 01:48:05,VALID,1003.96,VALID,0,VALID,96.2002,VALID,0,VALID,24.6185,VALID,54,VALID,0,
2010-04-25, 01:49:05,VALID,1003.97,VALID,0,VALID,96.2002,VALID,0,VALID,24.5972,VALID,54,VALID,0,
2010-04-25, 01:50:05,VALID,1003.98,VALID,0,VALID,96.1926,VALID,0,VALID,24.6185,VALID,54,VALID,0,
2010-04-25, 01:51:05,VALID,1003.99,VALID,0,VALID,96.1926,VALID,0,VALID,24.599,VALID,54,VALID,0.307813,
2010-04-25, 01:52:05,VALID,1004.01,VALID,0,VALID,96.1773,VALID,0,VALID,24.6185,VALID,54,VALID,0.416797,
2010-04-25, 01:53:05,VALID,1004.05,VALID,0,VALID,96.1926,VALID,0,VALID,24.5796,VALID,52,VALID,0.516797,
2010-04-25, 01:54:05,VALID,1004.07,VALID,0,VALID,96.1849,VALID,0,VALID,24.599,VALID,18,VALID,0.699219,
2010-04-25, 01:55:05,VALID,1004.09,VALID,0,VALID,96.1544,VALID,0,VALID,24.599,VALID,10,VALID,0.744531,
2010-04-25, 01:56:05,VALID,1004.12,VALID,0,VALID,96.1697,VALID,0,VALID,24.5796,VALID,7,VALID,0.688672,
2010-04-25, 01:57:05,VALID,1004.11,VALID,0,VALID,96.1697,VALID,0,VALID,24.5212,VALID,7,VALID,0.655078,
2010-04-25, 01:58:05,VALID,1004.09,VALID,0,VALID,96.1544,VALID,0,VALID,24.5017,VALID,6,VALID,0.5625,
2010-04-25, 01:59:05,VALID,1004.12,VALID,0,VALID,96.1315,VALID,0,VALID,24.4609,VALID,5,VALID,0.552734,
2010-04-25, 02:00:05,VALID,1004.1,VALID,0,VALID,96.162,VALID,0,VALID,24.4609,VALID,4,VALID,0.404687,
2010-04-25, 02:01:05,VALID,1004.1,VALID,0,VALID,96.1697,VALID,0,VALID,24.4609,VALID,4,VALID,0.5,
2010-04-25, 02:02:05,VALID,1004.1,VALID,0,VALID,96.1926,VALID,0,VALID,24.4609,VALID,5,VALID,0.299609,
2010-04-25, 02:03:05,VALID,1004.08,VALID,0,VALID,96.2078,VALID,0,VALID,24.4414,VALID,5,VALID,0.215234,
2010-04-25, 02:04:05,VALID,1004.08,VALID,0,VALID,96.2078,VALID,0,VALID,24.4628,VALID,5,VALID,0.0597656,
2010-04-25, 02:05:05,VALID,1004.08,VALID,0,VALID,96.2383,VALID,0,VALID,24.4609,VALID,5,VALID,0.0449219,
2010-04-25, 02:06:05,VALID,1004.09,VALID,0,VALID,96.2383,VALID,0,VALID,24.4804,VALID,4,VALID,0,
2010-04-25, 02:07:05,VALID,1004.12,VALID,0,VALID,96.2841,VALID,0,VALID,24.4998,VALID,5,VALID,0,
2010-04-25, 02:08:05,VALID,1004.09,VALID,0,VALID,96.2917,VALID,0,VALID,24.5193,VALID,5,VALID,0.0148437,
2010-04-25, 02:09:05,VALID,1004.11,VALID,0,VALID,96.2917,VALID,0,VALID,24.5388,VALID,5,VALID,0.0195313,
2010-04-25, 02:10:05,VALID,1004.1,VALID,0,VALID,96.3299,VALID,0.100563,VALID,24.5601,VALID,5,VALID,0.368359,
2010-04-25, 02:11:05,VALID,1004.08,VALID,0,VALID,96.3375,VALID,0,VALID,24.5796,VALID,13,VALID,0.632031,
2010-04-25, 02:12:05,VALID,1004.07,VALID,0,VALID,96.3375,VALID,0,VALID,24.5388,VALID,21,VALID,0.501562,
2010-04-25, 02:13:05,VALID,1004.05,VALID,0,VALID,96.3375,VALID,0,VALID,24.4998,VALID,21,VALID,0.381641,
2010-04-25, 02:14:05,VALID,1004.06,VALID,0,VALID,96.3528,VALID,0.100563,VALID,24.4804,VALID,21,VALID,0.396875,
2010-04-25, 02:15:05,VALID,1004.05,VALID,0,VALID,96.307,VALID,0,VALID,24.4822,VALID,21,VALID,0.372266,
2010-04-25, 02:16:05,VALID,1004.01,VALID,0,VALID,96.3222,VALID,0,VALID,24.4822,VALID,21,VALID,0.341406,
2010-04-25, 02:17:05,VALID,1004,VALID,0,VALID,96.3222,VALID,0,VALID,24.4628,VALID,21,VALID,0.169141,
2010-04-25, 02:18:05,VALID,1004.04,VALID,0,VALID,96.3375,VALID,0,VALID,24.4025,VALID,21,VALID,0.15,
2010-04-25, 02:19:05,VALID,1004.04,VALID,0,VALID,96.3222,VALID,0,VALID,24.4433,VALID,21,VALID,0,
2010-04-25, 02:20:05,VALID,1004.02,VALID,0,VALID,96.3375,VALID,0,VALID,24.4414,VALID,21,VALID,0.305859,
2010-04-25, 02:21:05,VALID,1004.06,VALID,0,VALID,96.3146,VALID,0,VALID,24.4628,VALID,21,VALID,0.0367187,
2010-04-25, 02:22:05,VALID,1004.05,VALID,0,VALID,96.3604,VALID,0,VALID,24.4628,VALID,21,VALID,0.00390625,
2010-04-25, 02:23:05,VALID,1004.06,VALID,0,VALID,96.3604,VALID,0,VALID,24.422,VALID,21,VALID,0,
2010-04-25, 02:24:05,VALID,1004.04,VALID,0,VALID,96.3451,VALID,0,VALID,24.4414,VALID,21,VALID,0.00234375,
2010-04-25, 02:25:05,VALID,1004.02,VALID,0,VALID,96.3833,VALID,0,VALID,24.4025,VALID,21,VALID,0.366016,
2010-04-25, 02:26:05,VALID,1004,VALID,0,VALID,96.3909,VALID,0,VALID,24.383,VALID,21,VALID,0.605078,
2010-04-25, 02:27:05,VALID,1003.99,VALID,0,VALID,96.368,VALID,0,VALID,24.3849,VALID,13,VALID,0.612891,
2010-04-25, 02:28:05,VALID,1003.97,VALID,0,VALID,96.368,VALID,0,VALID,24.3849,VALID,12,VALID,0.600781,
2010-04-25, 02:29:05,VALID,1003.98,VALID,0,VALID,96.368,VALID,0,VALID,24.4025,VALID,3,VALID,0.548047,
2010-04-25, 02:30:05,VALID,1003.99,VALID,0,VALID,96.3909,VALID,0,VALID,24.4238,VALID,3,VALID,0.421875,
2010-04-25, 02:31:05,VALID,1003.97,VALID,0,VALID,96.3985,VALID,0,VALID,24.3849,VALID,2,VALID,0.487109,
2010-04-25, 02:32:05,VALID,1003.98,VALID,0,VALID,96.4062,VALID,0,VALID,24.383,VALID,2,VALID,0.424609,
2010-04-25, 02:33:05,VALID,1003.97,VALID,0,VALID,96.3985,VALID,0,VALID,24.4043,VALID,2,VALID,0.461328,
2010-04-25, 02:34:05,VALID,1003.94,VALID,0,VALID,96.4062,VALID,0,VALID,24.383,VALID,2,VALID,0.308203,
2010-04-25, 02:35:05,VALID,1003.94,VALID,0,VALID,96.3756,VALID,0,VALID,24.4238,VALID,2,VALID,0.308984,
2010-04-25, 02:36:05,VALID,1003.94,VALID,0,VALID,96.4214,VALID,0,VALID,24.4451,VALID,2,VALID,0.122656,
2010-04-25, 02:37:05,VALID,1003.97,VALID,0,VALID,96.4062,VALID,0,VALID,24.4238,VALID,2,VALID,0.189844,
2010-04-25, 02:38:05,VALID,1003.94,VALID,0,VALID,96.4214,VALID,0,VALID,24.4433,VALID,2,VALID,0,
2010-04-25, 02:39:05,VALID,1003.94,VALID,0,VALID,96.4214,VALID,0,VALID,24.4433,VALID,2,VALID,0.194141,
2010-04-25, 02:40:05,VALID,1003.97,VALID,0,VALID,96.429,VALID,0,VALID,24.4414,VALID,2,VALID,0.205469,
2010-04-25, 02:41:05,VALID,1004,VALID,0,VALID,96.4367,VALID,0,VALID,24.4822,VALID,2,VALID,0.349219,
2010-04-25, 02:42:05,VALID,1004.04,VALID,0,VALID,96.4443,VALID,0,VALID,24.4822,VALID,2,VALID,0.275,
2010-04-25, 02:43:05,VALID,1004.05,VALID,0,VALID,96.4443,VALID,0,VALID,24.5017,VALID,2,VALID,0.144922,
2010-04-25, 02:44:05,VALID,1004.08,VALID,0,VALID,96.4519,VALID,0,VALID,24.5406,VALID,2,VALID,0.0875,
2010-04-25, 02:45:05,VALID,1004.08,VALID,0,VALID,96.4825,VALID,0,VALID,24.5601,VALID,2,VALID,0.0824219,
2010-04-25, 02:46:05,VALID,1004.11,VALID,0,VALID,96.4825,VALID,0,VALID,24.5193,VALID,2,VALID,0,
2010-04-25, 02:47:05,VALID,1004.11,VALID,0,VALID,96.4748,VALID,0,VALID,24.5601,VALID,2,VALID,0.00273437,
2010-04-25, 02:48:05,VALID,1004.11,VALID,0,VALID,96.4748,VALID,0,VALID,24.5193,VALID,2,VALID,0.129688,
2010-04-25, 02:49:05,VALID,1004.11,VALID,0,VALID,96.4672,VALID,0,VALID,24.5601,VALID,2,VALID,0.0683594,
2010-04-25, 02:50:05,VALID,1004.12,VALID,0,VALID,96.4367,VALID,0,VALID,24.5388,VALID,2,VALID,0,
2010-04-25, 02:51:04,VALID,1004.13,VALID,0,VALID,96.4596,VALID,0,VALID,24.5601,VALID,2,VALID,0,
2010-04-25, 02:52:04,VALID,1004.14,VALID,0,VALID,96.4519,VALID,0,VALID,24.5796,VALID,2,VALID,0,
2010-04-25, 02:53:04,VALID,1004.12,VALID,0,VALID,96.4672,VALID,0,VALID,24.5796,VALID,2,VALID,0,
2010-04-25, 02:54:04,VALID,1004.13,VALID,0,VALID,96.4367,VALID,0,VALID,24.5796,VALID,2,VALID,0.107422,
2010-04-25, 02:55:04,VALID,1004.12,VALID,0,VALID,96.4672,VALID,0,VALID,24.5796,VALID,2,VALID,0.466016,
2010-04-25, 02:56:04,VALID,1004.05,VALID,0,VALID,96.4672,VALID,0,VALID,24.5388,VALID,2,VALID,0.675781,
2010-04-25, 02:57:04,VALID,1004.03,VALID,0,VALID,96.4519,VALID,0,VALID,24.5406,VALID,2,VALID,0.771875,
2010-04-25, 02:58:04,VALID,1004.02,VALID,0,VALID,96.4367,VALID,0,VALID,24.5212,VALID,2,VALID,0.658594,
2010-04-25, 02:59:04,VALID,1004,VALID,0,VALID,96.4367,VALID,0,VALID,24.5212,VALID,2,VALID,0.670703,
2010-04-25, 03:00:04,VALID,1003.98,VALID,0,VALID,96.4138,VALID,0,VALID,24.4804,VALID,2,VALID,0.406641,
2010-04-25, 03:01:04,VALID,1003.98,VALID,0,VALID,96.429,VALID,0,VALID,24.5017,VALID,2,VALID,0.281641,
2010-04-25, 03:02:04,VALID,1003.97,VALID,0,VALID,96.4214,VALID,0,VALID,24.4609,VALID,2,VALID,0.400781,
2010-04-25, 03:03:04,VALID,1003.98,VALID,0,VALID,96.4138,VALID,0,VALID,24.4238,VALID,2,VALID,0.357031,
2010-04-25, 03:04:04,VALID,1003.94,VALID,0,VALID,96.4138,VALID,0,VALID,24.4043,VALID,2,VALID,0.355078,
2010-04-25, 03:05:04,VALID,1003.92,VALID,0,VALID,96.3833,VALID,0,VALID,24.4043,VALID,2,VALID,0.358203,
2010-04-25, 03:06:04,VALID,1003.89,VALID,0,VALID,96.3909,VALID,0,VALID,24.3636,VALID,2,VALID,0.391406,
2010-04-25, 03:07:04,VALID,1003.85,VALID,0,VALID,96.3985,VALID,0,VALID,24.383,VALID,2,VALID,0.565234,
2010-04-25, 03:08:04,VALID,1003.83,VALID,0,VALID,96.3909,VALID,0,VALID,24.4238,VALID,2,VALID,0.630078,
2010-04-25, 03:09:04,VALID,1003.85,VALID,0,VALID,96.3985,VALID,0,VALID,24.4025,VALID,2,VALID,0.382031,
2010-04-25, 03:10:04,VALID,1003.83,VALID,0,VALID,96.4062,VALID,0,VALID,24.4238,VALID,2,VALID,0.353516,
2010-04-25, 03:11:04,VALID,1003.82,VALID,0,VALID,96.429,VALID,0,VALID,24.383,VALID,2,VALID,0.420312,
2010-04-25, 03:12:04,VALID,1003.81,VALID,0,VALID,96.4443,VALID,0,VALID,24.383,VALID,2,VALID,0.517187,
2010-04-25, 03:13:04,VALID,1003.8,VALID,0,VALID,96.4443,VALID,0,VALID,24.3441,VALID,2,VALID,0.510156,
2010-04-25, 03:14:04,VALID,1003.79,VALID,0,VALID,96.4443,VALID,0,VALID,24.3246,VALID,2,VALID,0.548437,
2010-04-25, 03:15:04,VALID,1003.77,VALID,0,VALID,96.429,VALID,0,VALID,24.3459,VALID,2,VALID,0.582422,
2010-04-25, 03:16:04,VALID,1003.76,VALID,0,VALID,96.4443,VALID,0,VALID,24.3459,VALID,2,VALID,0.526172,
2010-04-25, 03:17:04,VALID,1003.77,VALID,0,VALID,96.429,VALID,0,VALID,24.3459,VALID,2,VALID,0.474609,
2010-04-25, 03:18:04,VALID,1003.77,VALID,0,VALID,96.4443,VALID,0,VALID,24.3459,VALID,2,VALID,0.360938,
2010-04-25, 03:19:04,VALID,1003.79,VALID,0,VALID,96.4596,VALID,0,VALID,24.3246,VALID,2,VALID,0.250391,
2010-04-25, 03:20:04,VALID,1003.8,VALID,0,VALID,96.4901,VALID,0,VALID,24.3654,VALID,2,VALID,0.200391,
2010-04-25, 03:21:04,VALID,1003.86,VALID,0,VALID,96.4825,VALID,0,VALID,24.3246,VALID,2,VALID,0.313281,
2010-04-25, 03:22:04,VALID,1003.86,VALID,0,VALID,96.4825,VALID,0,VALID,24.3459,VALID,2,VALID,0.381641,
2010-04-25, 03:23:04,VALID,1003.9,VALID,0,VALID,96.4977,VALID,0,VALID,24.3459,VALID,2,VALID,0.382031,
2010-04-25, 03:24:04,VALID,1003.94,VALID,0,VALID,96.4977,VALID,0,VALID,24.3654,VALID,2,VALID,0.540234,
2010-04-25, 03:25:04,VALID,1003.96,VALID,0,VALID,96.5053,VALID,0,VALID,24.3654,VALID,2,VALID,0.637891,
2010-04-25, 03:26:04,VALID,1003.97,VALID,0,VALID,96.513,VALID,0,VALID,24.4062,VALID,2,VALID,0.58125,
2010-04-25, 03:27:04,VALID,1003.98,VALID,0,VALID,96.4901,VALID,0,VALID,24.383,VALID,2,VALID,0.626953,
2010-04-25, 03:28:04,VALID,1004.04,VALID,0,VALID,96.513,VALID,0,VALID,24.4043,VALID,2,VALID,0.552344,
2010-04-25, 03:29:04,VALID,1004.05,VALID,0,VALID,96.5206,VALID,0,VALID,24.3849,VALID,2,VALID,0.475,
2010-04-25, 03:30:04,VALID,1004.09,VALID,0,VALID,96.5435,VALID,0,VALID,24.3636,VALID,2,VALID,0.440234,
2010-04-25, 03:31:04,VALID,1004.12,VALID,0,VALID,96.5359,VALID,0,VALID,24.3849,VALID,2,VALID,0.400781,
2010-04-25, 03:32:04,VALID,1004.17,VALID,0,VALID,96.5282,VALID,0,VALID,24.3849,VALID,2,VALID,0.329297,
2010-04-25, 03:33:04,VALID,1004.18,VALID,0,VALID,96.5282,VALID,0,VALID,24.4043,VALID,2,VALID,0.433984,
2010-04-25, 03:34:04,VALID,1004.2,VALID,0,VALID,96.5282,VALID,0,VALID,24.422,VALID,2,VALID,0.626953,
2010-04-25, 03:35:04,VALID,1004.22,VALID,0,VALID,96.5282,VALID,0,VALID,24.5035,VALID,352,VALID,0.691406,
2010-04-25, 03:36:04,VALID,1004.25,VALID,0,VALID,96.5359,VALID,0,VALID,24.5212,VALID,349,VALID,0.637109,
2010-04-25, 03:37:04,VALID,1004.26,VALID,0,VALID,96.5435,VALID,0,VALID,24.5406,VALID,350,VALID,0.78125,
2010-04-25, 03:38:04,VALID,1004.29,VALID,0,VALID,96.5587,VALID,0,VALID,24.5601,VALID,348,VALID,0.646875,
2010-04-25, 03:39:04,VALID,1004.3,VALID,0,VALID,96.5435,VALID,0,VALID,24.5796,VALID,348,VALID,0.449219,
2010-04-25, 03:40:04,VALID,1004.27,VALID,0,VALID,96.5511,VALID,0,VALID,24.599,VALID,348,VALID,0.414844,
2010-04-25, 03:41:04,VALID,1004.26,VALID,0,VALID,96.5511,VALID,0,VALID,24.5972,VALID,348,VALID,0.648438,
2010-04-25, 03:42:04,VALID,1004.29,VALID,0,VALID,96.5435,VALID,0,VALID,24.6185,VALID,348,VALID,0.539453,
2010-04-25, 03:43:04,VALID,1004.27,VALID,0,VALID,96.5435,VALID,0,VALID,24.599,VALID,348,VALID,0.479297,
2010-04-25, 03:44:04,VALID,1004.28,VALID,0,VALID,96.5664,VALID,0,VALID,24.6185,VALID,348,VALID,0.451562,
2010-04-25, 03:45:04,VALID,1004.28,VALID,0,VALID,96.5511,VALID,0,VALID,24.6185,VALID,348,VALID,0.348047,
2010-04-25, 03:46:04,VALID,1004.27,VALID,0,VALID,96.5282,VALID,0,VALID,24.638,VALID,348,VALID,0.416406,
2010-04-25, 03:47:04,VALID,1004.25,VALID,0,VALID,96.5511,VALID,0,VALID,24.6361,VALID,348,VALID,0.271875,
2010-04-25, 03:48:04,VALID,1004.23,VALID,0,VALID,96.5206,VALID,0,VALID,24.6574,VALID,348,VALID,0.166797,
2010-04-25, 03:49:04,VALID,1004.21,VALID,0,VALID,96.513,VALID,0,VALID,24.6574,VALID,348,VALID,0,
2010-04-25, 03:50:04,VALID,1004.18,VALID,0,VALID,96.513,VALID,0,VALID,24.6769,VALID,349,VALID,0.15625,
2010-04-25, 03:51:04,VALID,1004.15,VALID,0,VALID,96.4977,VALID,0,VALID,24.675,VALID,358,VALID,0.322266,
2010-04-25, 03:52:04,VALID,1004.13,VALID,0,VALID,96.4748,VALID,0,VALID,24.6945,VALID,58,VALID,0.530859,
2010-04-25, 03:53:04,VALID,1004.09,VALID,0,VALID,96.4672,VALID,0,VALID,24.7548,VALID,66,VALID,0.419922,